FW0277 Weather Reports


time (UTC)temp
C
wind
direction
speed
KPH
gust
KPH
rain 1hr
cm
rain 24hr
cm
rain mn
cm
humidity
%
barometer
mb
20260503201502 17 303 8.0 14.5 0.00 0.00 0.00 44 1020.1
20260503200001 16 245 1.6 12.9 0.00 0.00 0.00 43 1020.3
20260503194603 16 310 4.8 22.5 0.00 0.00 0.00 46 1020.4
20260503193100 17 249 0.0 11.3 0.00 0.00 0.00 46 1020.4
20260503191557 17 25 3.2 12.9 0.00 0.00 0.00 43 1020.6
20260503190055 17 218 1.6 8.0 0.00 0.00 0.00 50 1020.7
20260503184610 16 293 0.0 16.1 0.00 0.00 0.00 47 1020.9
20260503183100 16 300 3.2 12.9 0.00 0.00 0.00 46 1021.1
20260503181555 16 289 1.6 14.5 0.00 0.00 0.00 54 1021.3
20260503180054 15 293 6.4 12.9 0.00 0.00 0.00 54 1021.5
20260503174551 16 323 1.6 6.4 0.00 0.00 0.00 49 1021.7
20260503173049 15 296 1.6 12.9 0.00 0.00 0.00 55 1021.8
20260503171608 15 333 0.0 11.3 0.00 0.00 0.00 49 1022.0
20260503081537 6 37 0.0 1.6 0.00 0.00 0.00 80 1020.3
20260503071540 6 359 0.0 0.0 0.00 0.00 0.00 81 1019.7
20260503054522 8 335 0.0 0.0 0.00 0.00 0.00 77 1019.5
20260503053015 8 335 0.0 1.6 0.00 0.00 0.00 78 1019.6
20260503051514 8 309 0.0 0.0 0.00 0.00 0.00 77 1019.6
20260503050011 7 309 0.0 1.6 0.00 0.00 0.00 77 1019.5
20260503044517 7 17 0.0 1.6 0.00 0.00 0.00 77 1019.5
20260503043011 8 17 0.0 0.0 0.00 0.00 0.00 75 1019.3
20260503041506 8 17 0.0 0.0 0.00 0.00 0.00 75 1019.0
20260503040004 8 16 0.0 1.6 0.00 0.00 0.00 75 1019.1
20260503034504 8 341 0.0 1.6 0.00 0.00 0.00 74 1018.9
20260503033003 8 5 0.0 1.6 0.00 0.00 0.00 73 1019.0
20260503031503 8 319 0.0 1.6 0.00 0.00 0.00 74 1018.9
20260503030001 8 288 0.0 3.2 0.00 0.00 0.00 75 1018.8
20260503024600 7 28 0.0 0.0 0.00 0.00 0.00 74 1018.8
20260503023110 7 28 0.0 1.6 0.00 0.00 0.00 74 1018.7
20260503021601 7 29 0.0 0.0 0.00 0.00 0.00 73 1018.4
20260503020058 8 29 0.0 1.6 0.00 0.00 0.00 71 1018.3
20260503014551 8 32 0.0 1.6 0.00 0.00 0.00 70 1017.9
20260503013051 8 32 0.0 0.0 0.00 0.00 0.00 69 1017.7
20260503011558 8 32 0.0 1.6 0.00 0.00 0.00 67 1017.5
20260503010045 9 328 0.0 0.0 0.00 0.00 0.00 66 1017.4
20260503004546 10 328 0.0 0.0 0.00 0.00 0.00 63 1017.2
20260503003043 11 328 0.0 1.6 0.00 0.00 0.00 59 1016.8
20260503001543 12 6 0.0 3.2 0.00 0.00 0.00 57 1016.8
20260503000056 13 316 1.6 4.8 0.00 0.00 0.00 54 1016.5
20260502234543 13 300 4.8 14.5 0.00 0.00 0.00 51 1016.4
20260502233040 13 290 3.2 12.9 0.00 0.00 0.00 54 1016.2
20260502231540 13 307 4.8 11.3 0.00 0.00 0.00 51 1016.2
20260502230038 14 329 6.4 12.9 0.00 0.00 0.00 50 1016.1
20260502224538 15 18 4.8 14.5 0.00 0.00 0.00 48 1016.1
20260502223038 15 299 6.4 12.9 0.00 0.00 0.00 45 1016.0
20260502221538 16 289 6.4 22.5 0.00 0.00 0.00 47 1015.8
20260502220043 16 48 6.4 16.1 0.00 0.00 0.00 48 1015.7
20260502214537 15 307 3.2 11.3 0.00 0.00 0.00 50 1015.6
20260502213040 15 306 6.4 22.5 0.00 0.00 0.00 46 1015.4
20260502211537 15 327 6.4 12.9 0.00 0.00 0.00 46 1015.3
20260502210034 16 328 6.4 16.1 0.00 0.00 0.00 45 1015.2
20260502204536 15 306 3.2 16.1 0.00 0.00 0.00 44 1015.3
20260502203032 16 282 4.8 14.5 0.00 0.00 0.00 47 1015.3